Indianapolis, IN

12:35 PM EDT on April 26, 2018 (GMT -0400)
Indianapolis Terry

Weather History for KTYQ - December, 2013

Change the Weather History Date:

Sunday, December 8, 2013

  Actual Average (KEYE) Record (KEYE)
Temperature  
Mean Temperature 23 °F -  
Max Temperature 29 °F 41 °F 55 °F (2015)
Min Temperature 17 °F 28 °F 6 °F (2010)
Degree Days  
Heating Degree Days 42    
Moisture  
Dew Point 18 °F    
Average Humidity 79    
Maximum Humidity 90    
Minimum Humidity 68    
Precipitation  
Precipitation 0.00 in - - ()
Sea Level Pressure  
Sea Level Pressure 30.23 in    
Wind  
Wind Speed 8 mph (East)    
Max Wind Speed 15 mph    
Max Gust Speed 20 mph    
Visibility 7 miles    
Events Snow    
Averages and records for this station are not official NWS values.
T = Trace of Precipitation, MM = Missing Value Source: NWS Daily Summary

Daily Weather History Graph

Daily Weather History Graph

Search for Another Location

Airport or City:

Astronomy

Dec. 08, 2013 Rise Set
Actual Time 7:54 AM EST 5:19 PM EST
Civil Twilight 7:24 AM EST 5:49 PM EST
Nautical Twilight 6:50 AM EST 6:23 PM EST
Astronomical Twilight 6:17 AM EST 6:56 PM EST
Moon 12:14 PM EST (12/8) No Moon Set
Length of Visible Light 10h 25m
Length of Day
9h 24m
Waxing Crescent, 40% of the Moon is Illuminated
Dec 8
Waxing Crescent
Dec 9
First Quarter
Dec 17
Full
Dec 25
Last Quarter
Jan 1
New

Hourly Weather History & Observations

Time (EST) Temp. Windchill Dew Point Humidity Pressure Visibility Wind Dir Wind Speed Gust Speed Precip Events Conditions
12:15 AM 17.4 °F 10.4 °F 10.4 °F 74% 30.51 in 10.0 mi ENE 4.6 mph - N/A   Clear
12:35 AM 17.6 °F 12.3 °F 10.8 °F 75% 30.51 in 10.0 mi ENE 3.5 mph - N/A   Clear
12:55 AM 18.3 °F 11.5 °F 11.3 °F 74% 30.50 in 10.0 mi ENE 4.6 mph - N/A   Clear
1:15 AM 18.5 °F 10.4 °F 11.7 °F 75% 30.48 in 10.0 mi ENE 5.8 mph - N/A   Clear
1:35 AM 19.0 °F 11.1 °F 12.0 °F 74% 30.49 in 10.0 mi East 5.8 mph - N/A   Clear
1:55 AM 19.4 °F 11.5 °F 12.2 °F 74% 30.48 in 10.0 mi ENE 5.8 mph - N/A   Clear
2:15 AM 19.4 °F 11.5 °F 12.6 °F 75% 30.46 in 10.0 mi NE 5.8 mph - N/A   Clear
2:35 AM 19.4 °F 14.3 °F 12.2 °F 74% 30.48 in 10.0 mi East 3.5 mph - N/A   Scattered Clouds
2:55 AM 19.8 °F 11.9 °F 12.7 °F 74% 30.46 in 10.0 mi East 5.8 mph - N/A   Overcast
3:15 AM 19.9 °F 11.1 °F 13.1 °F 75% 30.45 in 10.0 mi East 6.9 mph - N/A   Overcast
3:35 AM 20.1 °F 12.3 °F 13.1 °F 74% 30.44 in 10.0 mi East 5.8 mph - N/A   Overcast
3:55 AM 20.1 °F 11.3 °F 12.7 °F 73% 30.45 in 10.0 mi East 6.9 mph - N/A   Mostly Cloudy
4:15 AM 20.1 °F 11.3 °F 12.9 °F 74% 30.43 in 10.0 mi ENE 6.9 mph - N/A   Mostly Cloudy
4:35 AM 20.1 °F 11.3 °F 13.1 °F 74% 30.42 in 10.0 mi ENE 6.9 mph - N/A   Overcast
4:55 AM 20.3 °F 11.5 °F 13.5 °F 75% 30.42 in 10.0 mi East 6.9 mph - N/A   Overcast
5:15 AM 20.3 °F 11.5 °F 13.3 °F 74% 30.42 in 10.0 mi ENE 6.9 mph - N/A   Overcast
5:35 AM 20.7 °F 11.9 °F 13.5 °F 74% 30.42 in 10.0 mi East 6.9 mph - N/A   Overcast
5:55 AM 20.8 °F 13.2 °F 13.6 °F 74% 30.42 in 10.0 mi East 5.8 mph - N/A   Overcast
6:15 AM 20.7 °F 11.0 °F 13.6 °F 74% 30.40 in 10.0 mi NE 8.1 mph - N/A   Overcast
6:35 AM 20.8 °F 9.7 °F 13.8 °F 74% 30.40 in 10.0 mi NE 10.4 mph - N/A   Overcast
6:55 AM 21.0 °F 9.3 °F 14.0 °F 74% 30.38 in 10.0 mi NE 11.5 mph - N/A   Overcast
7:15 AM 20.8 °F 9.0 °F 14.0 °F 75% 30.37 in 2.0 mi East 11.5 mph 16.1 mph N/A Snow Light Snow
7:35 AM 21.0 °F 10.6 °F 14.4 °F 75% 30.35 in 10.0 mi ENE 9.2 mph - N/A   Overcast
7:55 AM 21.2 °F 8.9 °F 14.0 °F 74% 30.34 in 10.0 mi East 12.7 mph 17.3 mph N/A   Overcast
8:15 AM 21.7 °F 8.5 °F 14.0 °F 72% 30.32 in 10.0 mi East 15.0 mph - N/A   Overcast
8:35 AM 21.7 °F 10.2 °F 14.0 °F 72% 30.31 in 10.0 mi ENE 11.5 mph - N/A   Overcast
8:55 AM 22.1 °F 9.5 °F 14.4 °F 72% 30.32 in 10.0 mi East 13.8 mph - N/A   Overcast
9:15 AM 22.5 °F 11.1 °F 14.4 °F 71% 30.31 in 10.0 mi East 11.5 mph 16.1 mph N/A   Overcast
9:35 AM 23.0 °F 12.4 °F 14.5 °F 70% 30.30 in 10.0 mi East 10.4 mph - N/A   Overcast
9:55 AM 23.5 °F 12.4 °F 14.5 °F 69% 30.30 in 10.0 mi East 11.5 mph 19.6 mph N/A   Overcast
10:15 AM 23.7 °F 12.1 °F 14.7 °F 69% 30.29 in 10.0 mi East 12.7 mph - N/A   Overcast
10:35 AM 24.3 °F 13.3 °F 14.9 °F 68% 30.30 in 10.0 mi East 11.5 mph 16.1 mph N/A Snow Light Snow
10:55 AM 24.3 °F 13.3 °F 15.6 °F 70% 30.29 in 7.0 mi East 11.5 mph - N/A Snow Light Snow
11:15 AM 24.4 °F 12.4 °F 16.3 °F 71% 30.28 in 5.0 mi East 13.8 mph 18.4 mph N/A Snow Light Snow
11:35 AM 24.8 °F 12.9 °F 17.2 °F 73% 30.27 in 7.0 mi East 13.8 mph 18.4 mph N/A Snow Light Snow
11:55 AM 25.5 °F 13.8 °F 18.3 °F 74% 30.25 in 10.0 mi East 13.8 mph 18.4 mph N/A   Overcast
12:15 PM 25.0 °F 13.6 °F 18.3 °F 76% 30.24 in 10.0 mi East 12.7 mph 19.6 mph N/A   Overcast
12:35 PM 24.8 °F 14.0 °F 18.7 °F 78% 30.22 in 3.0 mi East 11.5 mph - N/A Snow Light Snow
12:55 PM 25.2 °F 13.9 °F 19.2 °F 78% 30.21 in 3.0 mi East 12.7 mph - N/A Snow Light Snow
1:15 PM 25.5 °F 16.2 °F 19.9 °F 79% 30.19 in 2.5 mi East 9.2 mph - N/A Snow Light Snow
1:35 PM 25.9 °F 15.3 °F 19.9 °F 78% 30.18 in 3.0 mi East 11.5 mph - N/A Snow Light Snow
1:55 PM 26.4 °F 16.6 °F 20.1 °F 77% 30.16 in 4.0 mi East 10.4 mph 16.1 mph N/A   Haze
2:15 PM 26.2 °F 15.2 °F 20.1 °F 78% 30.14 in 5.0 mi East 12.7 mph - N/A   Haze
2:35 PM 26.1 °F 16.8 °F 19.9 °F 78% 30.13 in 7.0 mi East 9.2 mph - N/A   Overcast
2:55 PM 26.2 °F 17.1 °F 20.3 °F 78% 30.11 in 5.0 mi East 9.2 mph - N/A   Haze
3:15 PM 26.4 °F 17.3 °F 20.5 °F 78% 30.10 in 5.0 mi ESE 9.2 mph - N/A   Haze
3:35 PM 26.6 °F 17.5 °F 21.0 °F 79% 30.08 in 7.0 mi East 9.2 mph - N/A   Overcast
3:55 PM 26.6 °F 18.2 °F 21.2 °F 80% 30.07 in 7.0 mi East 8.1 mph - N/A   Overcast
4:15 PM 26.6 °F 18.2 °F 21.2 °F 80% 30.07 in 10.0 mi East 8.1 mph - N/A   Overcast
4:35 PM 26.6 °F 18.2 °F 21.6 °F 81% 30.06 in 10.0 mi East 8.1 mph - N/A   Overcast
4:55 PM 27.0 °F 18.0 °F 21.6 °F 80% 30.07 in 10.0 mi ESE 9.2 mph - N/A   Overcast
5:15 PM 27.0 °F 18.7 °F 21.6 °F 80% 30.06 in 10.0 mi ESE 8.1 mph - N/A   Overcast
5:35 PM 27.0 °F 17.3 °F 21.9 °F 81% 30.05 in 4.0 mi ESE 10.4 mph - N/A   Haze
5:55 PM 26.6 °F 16.2 °F 22.6 °F 85% 30.03 in 4.0 mi ESE 11.5 mph - N/A   Overcast
6:15 PM 26.6 °F 17.5 °F 23.0 °F 86% 30.03 in 2.5 mi SE 9.2 mph - N/A   Overcast
6:35 PM 26.6 °F 18.2 °F 23.4 °F 88% 30.03 in 2.5 mi SE 8.1 mph - N/A   Overcast
6:55 PM 26.6 °F 18.2 °F 23.5 °F 88% 30.03 in 2.5 mi SE 8.1 mph - N/A   Overcast
7:15 PM 26.8 °F 19.3 °F 23.7 °F 88% 30.02 in 2.5 mi SE 6.9 mph - N/A   Overcast
7:35 PM 26.6 °F 19.1 °F 23.9 °F 90% 30.01 in 2.5 mi ESE 6.9 mph - N/A   Overcast
7:55 PM 27.0 °F 20.5 °F 23.9 °F 88% 30.00 in 2.5 mi SE 5.8 mph - N/A   Overcast
8:15 PM 27.1 °F 20.7 °F 24.3 °F 89% 30.01 in 2.5 mi SSE 5.8 mph - N/A   Overcast
8:35 PM 27.3 °F 18.4 °F 24.6 °F 90% 30.02 in 2.0 mi SSE 9.2 mph - N/A   Overcast
8:55 PM 27.5 °F 19.3 °F 24.8 °F 90% 30.03 in 1.8 mi South 8.1 mph - N/A   Overcast
9:15 PM 27.7 °F 20.4 °F 25.2 °F 90% 30.00 in 1.5 mi SSE 6.9 mph - N/A   Overcast
9:35 PM 28.2 °F 21.0 °F 25.5 °F 90% 30.00 in 1.8 mi South 6.9 mph - N/A   Overcast
9:55 PM 28.4 °F 21.2 °F 25.7 °F 90% 29.99 in 2.0 mi South 6.9 mph - N/A   Overcast
10:15 PM 28.6 °F 21.5 °F 26.1 °F 90% 29.99 in 3.0 mi South 6.9 mph - N/A   Overcast
10:35 PM 28.9 °F 20.4 °F 26.2 °F 90% 29.98 in 5.0 mi South 9.2 mph - N/A   Overcast
10:55 PM 29.1 °F 21.3 °F 26.4 °F 90% 29.99 in 4.0 mi SSW 8.1 mph - N/A   Overcast
11:15 PM 29.3 °F 21.5 °F 26.6 °F 90% 29.98 in 5.0 mi SSW 8.1 mph - N/A   Overcast
11:35 PM 29.3 °F 20.2 °F 26.6 °F 90% 29.98 in 7.0 mi SSW 10.4 mph - N/A   Overcast
11:55 PM 29.3 °F 20.2 °F 26.6 °F 90% 29.97 in 5.0 mi SSW 10.4 mph - N/A   Overcast